Regional Weather Roundup
Issued by NWS

Home | Current Version | Previous Version | Graphics & Text | Print | Product List | Glossary On
Versions: 1 2 3 4 5 6 7 8 9 10 11 12 13 14 15 16 17 18 19 20 21 22 23 24 25 26 27 28 29 30 31 32 33 34 35 36 37 38 39 40 41 42 43 44 45 46 47 48 49 50
000
ASUS43 KFSD 311902
RWRSD

WEATHER ROUNDUP FOR SOUTH DAKOTA
NATIONAL WEATHER SERVICE SIOUX FALLS SD
200 PM CDT SUN AUG 31 2014

NOTE: "FAIR" INDICATES FEW OR NO CLOUDS BELOW 12,000 FEET WITH NO
SIGNIFICANT WEATHER AND/OR OBSTRUCTIONS TO VISIBILITY.


SDZ001>005-009-010-012>017-312000-
NORTHWEST AND NORTH CENTRAL SOUTH DAKOTA

CITY           SKY/WX    TMP DP  RH WIND       PRES   REMARKS
BUFFALO          N/A     64  55  72 NW7       29.73R
FAITH            N/A     67  55  65 W5        29.76S
MOBRIDGE       CLOUDY    70  61  73 W10       29.69S
$$

SDZ012>016-024>037-041>051-057-063-072>074-312000-
SOUTHWEST AND SOUTH CENTRAL SOUTH DAKOTA

CITY           SKY/WX    TMP DP  RH WIND       PRES   REMARKS
RAPID CTY ARPT PTSUNNY   72  53  51 E9        29.78F
PIERRE         CLOUDY    65  63  93 S8        29.74R
CUSTER         PTSUNNY   64  46  52 W8        29.86F
ELLSWORTH AFB  CLOUDY    70  53  53 NE8       29.78F
PHILIP         CLOUDY    70  56  61 SE3       29.76S
PINE RIDGE     PTSUNNY   70  57  63 W8        29.79F
WINNER         RAIN      64  60  87 SW6       29.80F FOG
$$

SDZ004>011-016>023-039-040-312000-
NORTHEAST SOUTH DAKOTA

CITY           SKY/WX    TMP DP  RH WIND       PRES   REMARKS
ABERDEEN       CLOUDY    70  63  78 W13       29.69R
WATERTOWN      MOSUNNY   77  63  61 W16       29.68R
SISSETON         N/A     73  64  73 W12       29.63S
$$

SDZ017-020-022-023-036>040-048>070-312000-
SOUTHEAST SOUTH DAKOTA

CITY           SKY/WX    TMP DP  RH WIND       PRES   REMARKS
SIOUX FALLS    PTSUNNY   79  66  64 SW8G16    29.71S
HURON          MOSUNNY   79  62  56 W16       29.70R
CHAMBERLAIN    RAIN      66  61  85 W13       29.78R
MITCHELL       MOSUNNY   79  62  56 W14       29.71S
YANKTON        SUNNY     81  64  57 NW9       29.70S
$$

ABBREVIATIONS USED IN REMARKS
   TC - TEMPERATURE IN CELSIUS
  WCI - WIND CHILL INDEX
   HX - HEAT INDEX
  VSB - VISIBILITY




USA.gov is the U.S. government's official web portal to all federal, state and local government web resources and services.